Location: Austin
(30.3000°N, 97.7500°W)
Time: 11:45:10
(UTC-05:00)

Landsat 7 - Pass Details

Date: 26 May 2023
Orbit: 691 x 694 km, 97.9° (Epoch: 31 May)

Event Time Altitude Azimuth Distance (km) Brightness Sun altitude
Exits shadow 21:09:10 - 164° (SSE) 2,755 6.4 -9.2°
Reaches altitude 10° 21:10:40 10° 163° (SSE) 2,138 5.9 -9.5°
Maximum altitude 21:15:21 80° 78° (ENE) 707 3.8 -10.4°
Drops below altitude 10° 21:20:04 10° 351° (N) 2,149 7.0 -11.2°
Sets 21:22:19 0° 350° (N) 3,068 7.8 -11.6°
